User: anonymous   Login
Location: Westerlo
(51.0830°N, 4.9170°E)
Time: 17:54:40
(UTC+02:00)
Language:

ISS - Orbit

View from above orbital plane
View from above orbital plane
View from above satellite
View from above satellite

Ground track
Ground track

The orbit data is extracted from the following two-line orbital elements,

1 25544U 98067A   19235.69462492  .00016717  00000-0  10270-3 0  9032
2 25544  51.6438  26.3787 0007418 316.9241  43.1337 15.50416771 25722
Epoch (UTC): 23 August 2019 16:40:15
Eccentricity: 0.0007418
inclination: 51.6438°
perigee height: 410 km
apogee height: 420 km
right ascension of ascending node: 26.3787°
argument of perigee: 316.9241°
revolutions per day: 15.50416771
mean anomaly at epoch: 43.1337°
orbit number at epoch: 2572

The dashed part of the orbit path shows where the satellite is in the earth's shadow,  

DLR